Temperature
20 19 19 19 19 19 18 18 18 18 18 18 18 17 17 17 17 17 17 17 17 17 17 17 17 17 17 17 17 17 17 17 17 17 17 17 17 17 16 16 16 16 16
20 19 19 19 18 18 18 18 18 18 18 18 17 17 17 17 17 17 17 17 17 16 16 16 17 17 17 17 17 17 17 17 17 17 16 16 16 16 16 16 16 16 16
20 19 19 19 18 18 18 18 17 17 17 17 17 17 17 17 17 17 17 16 16 16 16 16 16 16 16 16 16 16 16 16 16 16 16 16 16 16 16 16 15 15 15
20 19 19 19 18 18 18 17 17 17 17 17 17 17 17 17 17 17 17 16 16 16 16 16 16 16 16 16 16 16 16 16 16 16 16 16 16 15 15 15 15 15 15
19 19 19 18 18 18 18 17 17 17 17 17 17 17 16 17 17 17 17 16 16 16 16 16 16 16 16 15 15 15 15 15 15 15 15 15 15 15 15 15 15 15 15
19 19 18 18 18 18 17 17 17 17 17 17 16 16 16 16 16 16 16 16 16 16 16 16 15 15 15 15 15 15 15 15 15 14 14 14 14 14 14 14 14 14 14
18 18 18 18 17 17 17 17 17 16 16 16 16 16 16 16 16 16 16 16 16 15 15 15 15 15 15 15 15 14 14 14 14 14 14 14 14 14 14 14 14 14 14
18 18 17 17 17 17 17 16 16 16 16 16 16 16 16 16 16 16 16 16 15 15 15 15 15 15 15 15 14 14 14 14 14 14 14 14 14 14 14 14 14 13 14
17 17 17 17 17 16 16 16 16 16 16 16 16 15 15 15 16 16 16 15 15 15 15 15 15 15 15 14 14 14 14 14 14 14 14 14 14 14 13 13 13 13 13
17 17 17 16 16 16 16 16 16 16 16 16 16 15 15 15 15 15 15 15 15 15 15 14 14 14 14 14 14 14 13 13 13 13 13 13 13 13 13 13 13 13 12
17 17 16 16 16 16 16 16 16 16 15 15 15 15 15 15 15 15 15 15 15 14 14 14 14 14 14 14 14 13 13 13 13 13 13 13 13 13 13 13 13 12 12
17 16 16 16 16 15 15 15 15 15 15 15 15 15 15 15 15 14 14 14 14 14 14 14 14 14 14 14 13 13 13 13 13 13 13 13 13 13 13 13 13 12 12
16 16 16 15 15 15 15 15 15 15 15 15 15 14 14 14 14 14 14 14 14 13 13 13 13 13 13 13 13 13 13 13 13 12 12 12 13 12 12 12 12 12 12
16 15 15 15 15 15 15 15 15 14 14 14 14 14 14 14 14 14 14 13 13 13 13 13 13 13 13 13 13 13 12 12 12 12 12 12 12 12 12 12 12 12 12
15 15 15 15 15 15 15 14 14 14 14 14 14 14 13 13 13 13 13 13 13 13 13 13 13 13 13 13 13 12 12 12 12 12 12 12 12 12 12 11 11 11 11
15 15 15 15 15 15 15 14 14 14 14 14 14 14 13 13 13 13 13 13 12 12 12 12 12 12 12 12 12 12 12 12 12 11 11 11 11 11 11 11 11 11 11
15 15 15 15 15 14 14 14 14 14 14 13 13 13 13 13 13 12 12 12 12 12 12 12 12 12 12 12 12 12 12 11 11 11 11 11 11 11 11 10 10 10 10
14 14 14 14 14 14 14 14 14 13 13 13 13 13 13 13 12 12 12 12 12 12 12 11 11 12 12 12 11 11 11 11 11 11 10 10 10 10 10 10 10 10 10
14 14 14 14 14 14 14 14 13 13 13 13 13 12 12 12 12 12 12 11 11 11 11 11 11 11 11 11 11 11 11 11 10 10 10 10 10 10 10 9 9 9 9
14 14 13 13 13 13 13 13 13 13 13 12 12 12 12 12 12 11 11 11 11 11 11 11 11 11 11 11 11 10 10 10 10 10 10 9 9 9 9 9 9 9 9
13 13 13 13 13 13 13 13 12 12 12 12 12 12 12 11 11 11 11 11 10 10 10 10 10 10 10 10 10 10 10 9 9 9 9 9 9 9 9 9 9 9 9
13 13 13 13 12 12 12 12 12 12 12 12 12 12 11 11 11 11 11 11 10 10 10 10 10 10 9 9 9 9 9 9 9 9 9 9 8 8 8 8 8 8 8
13 13 13 12 12 12 12 12 12 12 12 12 12 12 11 11 11 11 10 10 10 10 10 10 9 9 9 9 9 9 8 8 8 8 8 8 8 8 8 7 7 7 8
13 13 13 12 12 12 12 12 12 12 12 12 11 11 11 11 10 10 10 10 10 10 9 9 9 9 9 9 8 8 8 8 8 8 8 8 7 7 7 7 7 7 7
13 13 13 13 12 12 12 12 12 12 11 11 11 11 10 10 10 10 10 10 9 9 9 9 9 8 8 8 8 8 8 7 7 7 7 7 7 6 6 6 6 6 6
12 12 13 12 12 12 12 12 11 11 11 11 11 10 10 10 10 9 9 9 9 9 8 8 8 8 8 8 7 7 7 7 7 7 7 6 6 6 6 6 6 6 6
Wind_Speed
6 5 5 5 4 4 3 2 2 1 1 0 1 1 1 1 2 2 3 2 2 2 2 2 2 2 3 3 3 2 2 1 2 2 1 0 0 0 1 3 6 7 7
6 5 5 4 4 4 3 3 2 2 1 1 1 2 2 2 2 1 2 2 2 2 1 1 2 2 2 3 3 3 2 2 1 2 2 1 1 2 2 3 3 4 6
5 5 5 4 3 3 3 2 2 3 2 2 2 2 2 1 1 1 2 2 2 1 1 1 1 1 2 2 2 2 2 3 1 2 2 1 1 1 1 3 3 2 4
4 4 3 3 3 2 2 2 2 2 2 1 1 1 1 1 0 1 2 2 2 1 1 1 0 0 1 3 2 2 2 3 2 2 2 2 1 1 1 2 3 2 3
3 2 2 2 1 2 2 2 2 2 2 1 1 1 1 1 1 1 2 2 1 1 1 1 0 1 1 1 2 2 2 2 2 3 2 2 1 1 1 2 3 2 3
2 2 2 1 1 1 1 2 2 2 1 1 1 2 2 1 1 1 1 2 1 1 1 1 1 1 1 1 0 1 1 1 2 2 2 2 2 2 2 3 2 2 2
2 2 1 1 1 1 1 1 1 2 1 1 1 1 1 1 2 2 2 2 1 1 1 1 2 1 2 1 1 2 2 3 4 2 2 3 2 2 2 4 3 3 3
2 2 2 1 1 1 0 0 1 1 1 1 1 0 1 1 1 1 2 2 2 1 1 1 0 1 2 2 1 1 2 3 4 3 2 3 3 2 3 4 5 5 4
2 2 2 1 1 0 1 0 1 1 1 1 1 1 1 1 2 1 1 2 2 2 2 1 1 2 0 1 2 3 3 3 4 4 4 5 5 5 3 2 3 3 4
2 1 2 1 0 0 1 0 0 1 1 1 1 1 2 2 3 2 0 1 1 2 1 1 1 2 2 2 2 3 4 4 4 4 4 6 6 6 6 4 3 3 3
1 1 2 1 1 1 2 0 0 0 0 1 1 1 2 3 4 2 1 0 1 2 1 0 1 2 2 3 3 4 5 5 5 5 4 4 4 4 4 4 4 3 3
2 1 1 1 1 1 2 1 1 1 1 1 1 1 1 2 3 1 1 1 2 2 2 1 0 2 3 4 4 5 5 5 4 4 3 3 3 3 3 3 4 4 5
2 2 1 1 1 2 2 2 2 2 1 1 1 1 1 1 2 2 1 2 3 2 3 4 3 5 5 4 6 6 4 3 3 4 3 3 2 3 2 2 3 4 4
2 1 1 2 2 2 1 1 1 1 1 1 1 1 1 2 2 2 1 1 2 2 2 3 4 5 5 5 4 3 3 4 4 4 3 3 2 2 2 2 3 3 3
1 1 1 1 2 2 2 1 1 2 2 2 1 1 1 1 0 1 1 1 2 2 2 2 2 2 1 2 3 3 3 3 3 3 3 3 3 2 2 3 3 3 3
0 0 1 1 1 2 2 2 5 4 5 5 4 3 2 3 2 1 2 3 4 3 1 2 2 2 2 2 2 2 2 2 2 2 3 3 3 3 3 3 3 3 4
1 1 1 0 0 1 1 1 1 2 3 3 2 2 2 2 2 0 1 3 4 2 1 2 2 2 3 3 2 2 2 1 2 2 2 2 2 3 2 3 3 3 3
1 1 1 1 1 0 0 0 1 1 1 1 1 4 4 3 1 1 1 2 2 0 2 3 3 2 2 3 3 2 2 2 2 2 2 2 2 2 2 3 3 3 3
2 1 1 1 1 1 1 1 1 1 1 1 1 1 2 1 1 1 0 1 2 3 3 3 3 3 3 2 2 3 3 2 2 2 3 2 2 2 2 3 3 4 4
0 1 1 1 1 1 1 1 2 1 1 0 0 1 1 1 0 0 0 1 2 3 3 3 3 3 3 2 2 3 3 3 3 3 3 3 2 2 3 3 3 3 3
0 1 1 1 1 1 1 1 1 1 1 1 0 1 1 1 1 1 1 1 2 3 2 2 2 3 2 2 2 3 4 4 4 4 4 3 3 3 3 3 3 3 3
1 1 1 0 0 0 1 1 1 1 1 0 0 1 2 2 2 2 2 2 2 1 1 1 2 2 2 2 2 3 3 3 3 4 4 4 3 4 4 4 4 4 4
1 1 1 1 1 1 2 1 1 1 1 1 1 0 1 1 2 2 2 2 2 1 1 2 2 2 3 3 3 3 3 4 4 4 5 4 4 4 4 4 5 5 5
2 2 1 1 1 1 2 1 1 2 1 1 1 1 1 1 2 2 2 2 2 2 2 2 3 3 5 5 5 6 6 7 7 6 6 5 5 5 5 5 5 6 6
2 2 2 1 1 1 1 1 2 2 2 1 1 2 2 2 2 2 2 2 2 2 2 3 3 4 5 6 6 7 8 9 8 8 6 5 5 5 5 6 6 6 6
2 2 2 2 1 1 1 2 2 2 2 2 1 2 2 3 2 2 2 2 2 1 1 2 3 4 5 5 6 7 7 8 8 9 7 6 6 5 6 5 7 7 7
Wind_Direction
174 177 175 180 189 195 201 206 204 224 233 214 242 237 234 248 255 266 273 271 267 281 293 307 305 312 328 323 328 326 327 344 302 295 306 26 213 280 207 219 200 192 201
170 172 175 176 184 195 198 203 188 193 216 210 228 236 234 230 242 251 271 283 272 271 286 302 317 320 331 328 330 326 329 333 320 297 296 273 231 236 216 249 237 212 206
166 172 170 177 184 195 198 196 199 195 201 216 212 218 229 229 243 272 275 283 287 288 294 311 324 341 336 326 318 325 322 321 309 283 277 273 255 249 240 267 277 270 239
147 152 155 169 181 191 194 196 209 212 194 206 221 218 195 158 279 299 293 282 296 308 313 327 352 13 316 312 313 340 333 325 308 287 269 265 272 283 265 283 288 276 278
112 123 127 140 160 169 185 193 194 214 214 208 222 228 225 202 272 301 283 260 279 303 320 350 83 89 49 350 343 354 339 326 311 302 301 324 333 334 312 285 290 284 269
105 114 117 132 145 177 191 187 189 207 212 207 220 225 234 256 342 28 334 288 273 269 281 289 216 129 126 114 35 352 336 310 317 312 312 314 304 302 296 299 308 302 289
99 82 87 134 150 168 229 184 205 219 207 204 224 215 171 77 60 58 0 301 273 276 315 312 305 17 76 19 241 230 253 251 245 261 287 291 294 292 295 301 302 294 279
94 77 58 45 111 134 163 210 225 228 225 209 228 196 120 103 78 41 328 274 271 257 253 232 169 47 1 2 312 287 265 258 248 233 238 264 267 282 280 275 279 279 260
119 100 87 58 39 52 115 261 270 246 219 200 197 173 158 126 138 110 298 250 229 229 220 197 171 157 297 339 287 278 280 269 260 253 236 243 249 251 265 296 296 286 283
125 134 132 134 155 331 79 65 280 263 230 191 152 163 178 148 146 132 356 271 262 268 215 178 153 190 218 232 264 275 279 285 288 274 257 250 242 239 228 229 256 276 284
112 114 117 123 162 134 106 94 263 214 184 209 199 196 170 154 155 161 150 244 302 296 298 229 175 197 230 248 260 267 272 283 284 273 256 242 234 229 215 216 224 244 269
87 95 105 112 187 129 118 138 197 211 182 179 170 137 117 126 122 142 195 275 306 311 309 321 309 250 261 260 255 266 284 297 285 283 275 257 249 239 229 225 227 233 238
82 76 89 123 127 139 161 174 192 186 189 159 126 117 101 102 110 98 127 294 310 313 324 329 308 270 260 257 248 260 278 278 277 282 282 278 271 266 254 241 234 238 246
96 96 140 145 134 117 145 159 141 130 115 82 82 67 63 77 72 61 16 300 301 310 316 313 292 270 263 265 262 248 238 255 267 277 284 283 278 272 262 248 244 242 249
130 154 184 148 129 116 106 74 101 87 123 123 88 103 84 77 110 150 148 334 320 331 336 313 297 297 282 263 257 248 239 245 261 275 285 291 289 278 280 278 263 256 254
174 213 222 182 150 151 127 86 56 62 88 93 79 77 71 71 110 92 27 0 338 334 350 300 297 305 302 295 296 289 268 268 279 282 292 296 298 297 293 294 287 277 268
315 313 309 307 122 137 126 132 103 65 74 85 102 111 114 104 100 110 322 333 322 327 300 293 298 305 309 314 311 307 301 280 273 283 284 295 298 299 303 302 294 293 291
335 4 339 327 5 36 80 129 147 184 195 182 202 199 188 194 219 256 337 3 347 331 271 282 291 296 299 303 307 318 320 320 314 304 295 298 299 304 307 305 298 294 289
1 8 357 342 353 20 26 359 351 348 278 180 125 166 205 223 292 287 47 315 303 308 298 299 311 309 310 320 330 332 330 326 327 318 315 317 311 307 305 304 306 307 297
70 38 3 341 351 4 13 358 348 338 320 6 100 65 59 107 257 13 231 286 303 311 318 323 326 328 338 353 354 349 347 343 340 333 326 324 317 306 303 303 299 299 295
254 184 181 311 351 27 9 341 319 303 308 313 344 102 139 276 285 291 275 250 269 284 287 300 316 322 343 358 354 352 352 351 351 340 331 328 321 312 309 308 306 306 304
289 289 175 168 298 290 265 266 276 255 265 300 85 122 175 257 282 287 290 276 274 286 317 328 328 329 340 354 345 337 339 341 339 335 331 324 315 310 314 316 318 317 316
262 233 226 242 264 260 253 261 290 306 317 350 3 24 193 273 302 320 321 332 346 349 360 359 353 2 16 22 13 7 3 352 340 334 332 332 327 318 309 304 306 308 306
279 258 244 245 263 271 277 286 296 306 311 330 334 341 328 309 321 338 337 357 11 10 17 14 13 13 21 27 22 30 31 13 357 345 335 325 320 319 314 305 300 299 297
292 291 288 275 274 296 298 296 297 298 304 312 328 345 347 349 341 348 359 356 357 356 358 13 28 32 29 32 38 36 28 23 13 356 337 321 313 313 313 309 300 295 292
292 298 313 321 305 299 294 292 285 294 306 315 351 9 351 338 332 342 344 337 337 344 359 14 27 32 33 46 46 38 29 16 1 349 333 319 313 314 313 307 305 301 296
Height
1506 1507 1508 1509 1510 1511 1511 1512 1512 1512 1513 1513 1513 1513 1512 1512 1513 1513 1513 1513 1513 1513 1513 1513 1513 1513 1514 1514 1514 1514 1514 1514 1513 1513 1513 1513 1512 1512 1512 1512 1512 1512 1511
1504 1505 1506 1507 1508 1509 1509 1510 1510 1510 1510 1510 1510 1510 1510 1510 1511 1511 1511 1511 1511 1511 1511 1511 1511 1511 1511 1511 1511 1511 1511 1512 1512 1511 1511 1510 1510 1510 1510 1510 1510 1509 1508
1502 1503 1504 1505 1506 1506 1507 1507 1508 1508 1508 1508 1508 1508 1508 1508 1509 1509 1509 1509 1509 1509 1509 1509 1509 1509 1509 1509 1509 1509 1509 1509 1509 1509 1508 1508 1508 1507 1507 1507 1507 1507 1507
1501 1501 1502 1503 1503 1504 1505 1505 1506 1506 1506 1506 1506 1507 1507 1507 1507 1507 1507 1507 1507 1507 1507 1507 1507 1507 1506 1506 1506 1506 1506 1506 1506 1506 1506 1506 1506 1505 1505 1505 1504 1504 1504
1499 1500 1500 1501 1501 1502 1503 1503 1503 1504 1504 1504 1505 1505 1505 1505 1505 1505 1505 1505 1505 1505 1505 1505 1505 1505 1504 1504 1504 1504 1504 1504 1503 1503 1503 1503 1503 1503 1502 1502 1502 1502 1502
1497 1498 1499 1499 1499 1500 1500 1501 1501 1501 1502 1502 1502 1503 1503 1503 1503 1503 1503 1503 1503 1503 1503 1503 1503 1502 1502 1502 1501 1501 1501 1501 1501 1501 1500 1500 1500 1500 1500 1500 1500 1500 1499
1496 1497 1497 1498 1498 1498 1499 1499 1499 1499 1499 1499 1500 1500 1500 1500 1500 1501 1501 1501 1501 1501 1501 1501 1501 1500 1500 1499 1499 1498 1498 1498 1499 1499 1498 1498 1498 1497 1497 1497 1497 1497 1496
1495 1495 1496 1496 1496 1496 1497 1497 1497 1497 1497 1497 1498 1498 1498 1498 1498 1498 1498 1499 1499 1498 1498 1498 1498 1498 1497 1497 1496 1496 1495 1495 1496 1495 1495 1495 1495 1495 1495 1494 1494 1494 1494
1494 1494 1494 1495 1495 1495 1495 1495 1495 1495 1495 1495 1496 1495 1495 1495 1495 1496 1495 1495 1496 1496 1496 1496 1495 1495 1495 1494 1494 1493 1493 1493 1493 1493 1492 1492 1492 1492 1491 1491 1490 1490 1490
1492 1493 1493 1493 1493 1494 1494 1494 1494 1493 1493 1493 1493 1493 1493 1493 1493 1493 1493 1493 1493 1493 1493 1493 1493 1492 1492 1492 1491 1491 1490 1490 1490 1489 1489 1489 1489 1489 1488 1488 1487 1487 1487
1491 1492 1492 1492 1492 1493 1493 1493 1492 1492 1492 1492 1491 1492 1491 1491 1491 1491 1491 1490 1491 1491 1491 1491 1490 1490 1489 1489 1488 1488 1487 1487 1487 1486 1486 1486 1486 1486 1485 1485 1485 1484 1484
1490 1490 1490 1491 1491 1492 1491 1491 1491 1491 1490 1490 1490 1490 1490 1490 1490 1489 1489 1489 1489 1489 1489 1488 1488 1488 1487 1486 1486 1485 1485 1484 1484 1484 1483 1483 1483 1482 1482 1482 1482 1481 1481
1488 1489 1489 1489 1490 1490 1489 1489 1490 1490 1489 1489 1489 1489 1488 1488 1488 1487 1487 1487 1487 1486 1486 1486 1485 1485 1484 1484 1484 1483 1482 1482 1481 1481 1480 1480 1480 1479 1479 1479 1478 1478 1477
1487 1487 1488 1488 1488 1489 1489 1489 1488 1488 1488 1488 1488 1488 1487 1487 1486 1485 1484 1484 1484 1484 1483 1483 1483 1482 1482 1482 1481 1480 1480 1479 1479 1478 1477 1477 1476 1476 1476 1475 1475 1474 1473
1487 1487 1487 1487 1487 1487 1487 1488 1488 1487 1487 1487 1487 1486 1486 1485 1484 1484 1483 1482 1482 1482 1481 1480 1480 1480 1479 1479 1479 1478 1477 1477 1476 1475 1475 1474 1473 1473 1472 1472 1471 1470 1470
1486 1486 1486 1487 1486 1487 1487 1487 1487 1487 1487 1486 1486 1485 1484 1484 1483 1482 1482 1481 1481 1481 1479 1478 1477 1477 1477 1477 1477 1476 1475 1474 1473 1473 1472 1471 1470 1469 1468 1468 1467 1467 1466
1485 1485 1486 1486 1486 1486 1486 1486 1486 1486 1485 1485 1484 1484 1484 1483 1482 1481 1480 1480 1479 1479 1478 1477 1476 1476 1475 1475 1474 1474 1473 1472 1471 1470 1469 1468 1467 1466 1465 1464 1463 1463 1462
1484 1484 1484 1485 1485 1485 1485 1485 1485 1484 1484 1483 1483 1482 1482 1481 1481 1480 1479 1478 1477 1477 1476 1476 1475 1474 1473 1472 1472 1471 1470 1469 1468 1467 1466 1465 1465 1463 1462 1461 1460 1459 1458
1483 1483 1483 1483 1483 1483 1483 1484 1484 1483 1483 1482 1481 1481 1480 1480 1479 1478 1477 1476 1476 1475 1475 1475 1474 1473 1472 1470 1469 1468 1468 1467 1466 1465 1464 1462 1461 1460 1459 1458 1457 1456 1455
1482 1482 1482 1482 1482 1482 1482 1482 1482 1482 1482 1481 1480 1479 1479 1478 1477 1476 1475 1475 1474 1473 1473 1472 1471 1471 1469 1468 1467 1466 1465 1464 1463 1462 1461 1459 1458 1457 1456 1455 1454 1453 1452
1481 1481 1481 1482 1481 1481 1481 1481 1481 1481 1481 1480 1480 1479 1478 1477 1476 1475 1474 1473 1472 1471 1471 1470 1469 1468 1467 1466 1464 1463 1462 1461 1460 1458 1457 1456 1455 1454 1453 1452 1451 1450 1449
1481 1480 1481 1481 1481 1480 1480 1480 1480 1480 1480 1479 1479 1478 1477 1476 1475 1474 1473 1472 1471 1470 1469 1467 1467 1466 1465 1464 1462 1461 1460 1458 1457 1456 1454 1453 1452 1450 1450 1449 1448 1447 1446
1480 1480 1480 1480 1480 1480 1479 1479 1479 1479 1479 1478 1477 1476 1475 1474 1474 1472 1471 1470 1469 1468 1467 1465 1464 1464 1463 1462 1460 1459 1457 1456 1454 1453 1451 1450 1449 1447 1446 1445 1444 1443 1442
1479 1479 1479 1479 1478 1478 1478 1478 1478 1478 1477 1477 1476 1475 1474 1473 1472 1470 1470 1468 1467 1466 1465 1464 1462 1462 1461 1459 1458 1456 1455 1453 1452 1450 1448 1447 1445 1444 1443 1442 1441 1440 1438
1477 1477 1477 1477 1477 1477 1477 1476 1476 1476 1475 1475 1474 1473 1472 1471 1470 1469 1468 1466 1465 1464 1463 1462 1460 1459 1458 1456 1455 1454 1452 1451 1449 1447 1445 1444 1442 1441 1439 1438 1437 1435 1434
1476 1476 1476 1476 1476 1475 1475 1475 1474 1474 1474 1473 1472 1471 1470 1469 1468 1467 1466 1465 1463 1462 1461 1460 1459 1457 1456 1454 1452 1451 1450 1448 1446 1444 1443 1441 1439 1437 1436 1434 1433 1431 1429